Tracking 31027 objects as of 19-Jul-2025
HD Live streaming from Space Station
objects crossing your sky now

PEGASUS DEB

Track PEGASUS DEB now!
10-day predictions


NORAD ID: 24213
Int'l Code: 1994-029KL
Perigee: 539.8 km
Apogee: 1,299.8 km
Inclination: 81.5 °
Period: 103.3 minutes
Semi major axis: 7290 km
RCS: 0.0555 m2 (small)
Launch date: May 19, 1994
Source: United States (US)
Launch site: AIR FORCE WESTERN TEST RANGE (AFWTR)

Note: This is SATELLITE DEBRIS
Your satellite tracking list
PRISMA
Track 1 satellite(s)




NASA's NSSDC Master Catalog

Two Line Element Set (TLE):
1 24213U 94029KL  25199.19303112  .00001200  00000-0  28114-3 0  9994
2 24213  81.4614  97.0559 0521191 275.3095  78.8834 13.94577870115492
Source of the keplerian elements: AFSPC